Wind_Speed
7 6 3 4 5 7 10 9 7 5 2 7 10 12 11 7 7 8 9 9 14 16 17 17 20 23 22 20 14 11 9 3 8 11 10 4 3 8 4 6 11 16 18 21 22
9 10 8 4 2 3 6 7 6 6 4 6 9 12 11 9 10 11 11 10 17 15 11 17 10 11 20 20 21 13 2 14 14 14 12 15 12 12 14 10 10 16 20 20 20
6 9 12 9 6 2 2 5 4 5 5 3 6 10 10 13 12 14 9 11 13 16 15 16 11 19 25 17 14 5 11 5 7 11 15 14 13 14 16 19 23 22 18 17 18
13 8 11 13 9 7 3 0 2 2 3 3 4 8 12 12 9 10 9 10 10 14 15 7 23 25 20 22 10 5 6 4 12 13 11 16 12 12 11 10 18 17 18 16 18
17 14 12 12 10 9 7 6 1 1 1 3 5 6 8 9 8 10 10 8 11 12 7 17 16 16 14 13 16 10 6 6 6 8 14 19 20 8 11 12 15 15 13 13 14
21 17 15 14 14 13 12 10 6 3 3 3 4 6 6 6 6 9 9 8 11 13 6 16 18 16 14 13 9 12 5 4 14 5 25 31 27 3 12 19 17 10 10 13 14
14 12 12 14 16 16 12 14 10 7 5 5 4 5 5 4 2 5 11 11 15 17 18 20 16 15 18 21 9 7 3 2 8 6 17 23 9 10 7 12 12 13 17 16 19
9 8 7 10 17 16 13 17 14 11 8 7 6 6 8 6 3 4 13 15 16 27 23 17 17 12 14 20 16 20 30 35 10 14 19 18 9 10 9 6 7 13 15 19 19
9 7 5 6 15 17 16 18 17 13 12 9 8 8 8 6 8 9 15 18 17 23 17 17 22 17 20 24 24 35 33 28 27 16 22 25 28 21 5 10 5 5 18 20 22
9 7 4 3 11 17 16 17 17 17 16 12 8 9 6 6 8 12 14 17 12 12 6 13 19 25 13 16 20 26 25 20 24 5 12 22 20 25 21 32 30 11 17 27 29
8 7 4 1 7 14 15 16 19 17 17 16 12 13 14 13 12 11 17 16 15 12 6 14 14 13 10 7 12 9 14 17 19 20 24 28 6 23 27 31 16 8 7 26 29
6 7 5 2 3 9 15 15 17 16 17 15 8 9 8 8 11 11 13 15 16 16 13 10 16 11 11 10 21 7 21 10 22 26 26 30 17 25 22 30 14 30 30 29 32
3 5 5 3 1 3 10 13 14 15 16 16 14 12 11 11 12 13 14 14 15 18 19 2 6 3 12 15 13 17 17 16 22 23 23 20 13 14 21 26 12 27 25 29 26
4 2 4 2 2 3 6 8 10 12 12 14 16 16 12 10 9 13 16 16 18 15 16 10 7 13 2 6 22 16 16 19 23 22 12 12 19 20 16 13 11 30 35 29 26
7 3 1 2 2 4 4 4 6 10 16 17 19 17 16 13 15 13 13 12 15 15 18 10 9 7 13 9 15 24 17 16 16 9 6 19 20 14 32 5 8 16 26 33 34
10 7 3 1 1 3 3 4 4 8 7 9 14 16 16 14 15 11 10 17 17 11 14 7 9 9 11 12 14 18 15 16 16 23 31 23 21 22 23 28 39 39 15 32 37
14 10 6 4 3 3 4 5 8 5 7 12 8 13 16 14 14 14 16 14 18 17 12 13 15 5 7 15 9 13 20 22 17 20 20 20 15 20 21 30 27 32 31 28 34
18 14 11 8 6 5 6 12 15 16 2 14 16 7 12 13 13 17 10 11 9 9 8 13 14 10 4 9 11 14 17 23 12 15 20 20 12 18 18 20 16 25 29 35 43
19 18 15 11 9 8 9 12 17 17 20 12 3 4 8 12 13 17 15 14 13 13 6 4 9 4 10 8 17 19 16 27 25 24 26 26 10 13 21 33 15 32 39 41 45
23 21 19 17 14 11 11 14 15 14 9 8 11 2 6 6 10 17 12 7 7 11 8 9 11 11 7 8 14 20 17 17 15 13 12 17 27 28 26 26 19 27 35 38 41
31 25 22 22 18 14 14 15 16 13 9 15 12 9 9 7 16 13 14 10 12 11 13 14 9 16 17 11 8 13 14 7 9 12 12 16 23 24 19 23 11 36 36 38 42
33 33 27 25 21 17 17 16 12 13 13 15 15 13 18 14 14 16 17 8 12 13 10 11 8 14 22 15 12 14 14 21 15 13 8 15 20 13 22 31 37 39 38 40 43
36 34 27 27 24 25 26 18 16 13 17 21 19 17 17 19 19 20 15 13 16 22 12 8 7 4 9 3 8 8 7 11 17 9 6 16 21 33 35 39 40 42 41 44 45
36 34 33 34 31 26 23 18 18 16 16 14 19 14 8 15 10 18 13 16 19 21 12 9 8 7 7 1 2 3 4 8 12 10 5 18 24 27 30 31 32 36 41 43 45
37 39 39 38 39 36 31 25 22 20 18 21 18 11 9 9 12 14 20 16 16 12 11 10 11 12 10 11 3 5 4 11 8 9 12 12 23 23 25 28 31 33 40 44 46
40 43 37 37 36 33 29 27 20 17 22 19 17 15 13 9 22 17 23 24 18 14 17 20 14 16 15 15 10 12 16 7 16 12 9 18 24 24 24 27 29 32 39 43 45
34 33 36 38 36 33 30 27 24 23 28 25 25 25 22 18 17 15 26 25 29 18 12 11 12 15 12 9 15 18 16 14 20 15 14 17 21 24 25 31 34 38 43 45 45
Wind_Direction
301 316 349 24 35 39 48 38 45 27 99 175 186 187 175 169 130 106 82 86 105 106 117 105 97 97 102 109 96 82 98 306 320 349 6 332 31 349 322 320 353 343 347 343 341
264 281 291 290 338 20 41 37 34 37 44 164 175 191 180 168 139 96 105 99 101 114 96 95 78 85 44 60 52 76 351 305 289 339 357 351 346 350 339 349 346 354 346 347 347
264 261 265 272 271 281 347 44 28 30 59 115 165 192 185 160 141 101 96 102 102 94 87 86 113 75 71 55 82 74 321 31 11 355 336 341 343 348 337 347 340 352 355 352 349
271 251 252 261 264 255 243 320 15 20 58 93 141 178 177 166 153 130 103 102 130 100 95 112 78 64 69 26 69 215 74 13 79 33 18 4 334 326 353 351 345 358 360 8 6
277 276 245 252 252 243 232 230 206 227 39 112 128 159 176 166 146 138 111 113 129 129 117 122 74 16 62 42 356 8 11 5 359 36 19 7 337 326 340 356 352 345 351 12 6
280 273 260 237 247 245 231 226 211 214 216 149 148 156 170 167 173 148 137 126 116 98 92 109 97 66 45 6 6 12 39 29 69 34 19 11 347 300 339 346 10 354 9 13 10
287 283 263 241 231 239 228 221 210 208 205 209 181 182 193 194 206 136 132 128 113 100 91 87 110 63 46 44 25 6 15 202 100 259 35 349 39 334 347 354 6 356 2 1 12
325 319 292 240 227 229 222 214 208 207 204 211 200 193 199 204 191 136 131 136 127 109 96 77 67 35 43 52 336 360 354 1 24 6 4 325 16 271 9 347 21 358 353 349 7
347 340 319 237 211 214 221 216 210 211 205 206 205 200 192 206 184 153 145 141 142 126 102 74 78 39 7 34 347 360 355 19 45 36 333 315 338 338 301 131 26 353 354 1 8
3 6 351 255 212 208 215 211 211 214 211 205 190 188 192 232 196 171 158 150 141 118 80 69 59 37 12 15 1 343 15 16 3 33 288 323 322 329 328 336 347 340 23 9 3
12 13 16 281 218 209 210 211 211 218 227 218 203 204 203 204 192 187 179 160 155 160 115 63 36 9 345 29 317 341 349 345 328 345 337 322 42 338 342 338 17 320 201 22 358
20 19 18 353 238 215 213 211 217 218 217 221 214 239 241 244 213 196 191 173 175 181 190 74 71 348 326 359 332 331 348 336 321 312 307 296 326 345 353 346 44 15 12 20 352
338 27 20 37 98 182 209 212 212 216 218 210 204 213 230 226 213 205 201 192 188 195 203 84 343 97 320 14 312 324 319 332 319 332 304 304 343 341 359 346 14 27 20 18 1
271 354 39 35 134 161 188 197 210 206 215 213 209 220 226 235 246 227 235 203 195 194 197 177 237 208 240 328 304 310 271 288 319 312 316 309 335 8 0 17 58 29 20 10 13
252 258 17 42 159 171 173 183 202 202 208 202 206 216 217 214 232 236 253 273 238 204 242 221 211 245 215 278 273 290 314 330 341 12 352 359 357 333 336 329 136 50 9 356 358
248 249 233 282 197 191 160 163 163 192 190 219 205 222 232 235 248 243 288 276 290 272 254 249 249 293 274 263 293 293 309 329 316 317 353 17 343 335 337 331 338 321 330 350 348
246 252 245 235 239 198 170 131 135 108 22 298 250 238 227 236 243 254 286 257 265 240 271 242 226 224 5 311 314 299 307 316 317 345 355 325 314 309 334 335 358 356 9 349 344
243 246 246 241 228 211 182 158 155 106 241 264 288 227 230 235 239 239 268 245 297 248 299 278 195 201 33 352 322 282 290 284 339 314 309 314 345 334 341 342 335 350 1 356 351
239 245 245 241 234 212 198 204 204 176 204 229 159 258 233 236 241 244 263 262 268 274 263 268 177 108 15 263 250 251 269 294 307 309 312 310 1 349 342 325 25 359 0 349 346
240 242 242 240 234 217 209 211 222 237 225 208 149 38 294 262 252 259 269 250 226 246 270 287 287 192 210 256 272 264 259 288 299 336 325 325 337 330 324 337 345 354 357 348 339
245 245 242 238 232 220 214 219 230 244 199 192 179 165 168 273 292 289 285 267 267 245 253 275 263 194 221 252 255 266 282 325 328 322 325 330 315 321 351 19 319 354 347 342 341
248 249 240 237 232 224 221 225 230 225 198 193 195 180 175 193 249 275 290 252 272 289 284 261 249 214 242 259 273 272 313 312 302 327 354 323 314 334 340 344 347 348 343 338 344
249 251 229 230 226 223 222 220 214 213 200 185 196 215 209 202 206 210 246 269 266 274 284 260 267 260 229 62 326 248 355 336 351 348 336 309 332 329 343 340 339 340 336 336 343
238 236 224 220 216 220 230 225 214 202 210 230 212 221 216 221 243 187 246 252 257 269 245 240 249 266 283 21 22 112 43 327 326 320 300 321 323 326 333 333 332 332 333 335 335
230 228 225 219 214 212 211 217 221 205 197 209 213 204 199 193 220 208 219 250 255 252 236 249 258 261 254 250 233 163 251 214 244 293 279 296 310 321 329 334 338 336 336 335 335
230 226 224 220 226 224 218 219 213 217 196 213 216 201 239 209 233 207 213 244 239 241 277 262 254 270 277 251 224 205 244 228 263 292 280 300 312 324 328 326 328 335 338 336 332
235 235 226 223 220 220 222 219 206 220 221 201 207 203 210 224 228 255 239 254 252 223 304 247 290 298 290 215 233 231 240 278 265 288 296 311 318 323 328 322 329 336 340 341 334
Height
5943 5943 5943 5943 5942 5942 5941 5939 5937 5936 5935 5937 5938 5940 5941 5942 5944 5945 5944 5945 5943 5943 5942 5943 5950 5945 5939 5937 5935 5938 5950 5947 5944 5941 5940 5938 5938 5935 5934 5933 5930 5927 5927 5924 5920
5943 5943 5943 5943 5943 5943 5942 5940 5939 5937 5936 5937 5939 5941 5941 5943 5945 5946 5946 5946 5945 5946 5948 5953 5955 5948 5943 5942 5940 5942 5944 5950 5947 5945 5941 5938 5937 5935 5932 5932 5931 5931 5927 5924 5920
5941 5941 5941 5941 5942 5943 5943 5942 5940 5939 5938 5938 5939 5941 5943 5944 5946 5947 5948 5946 5948 5949 5951 5952 5953 5953 5951 5948 5946 5949 5950 5949 5948 5945 5942 5939 5938 5937 5933 5932 5928 5930 5928 5924 5921
5938 5939 5939 5939 5940 5942 5943 5943 5941 5940 5940 5940 5940 5942 5944 5945 5948 5948 5948 5948 5950 5951 5950 5950 5949 5947 5946 5948 5949 5952 5951 5948 5948 5946 5944 5940 5938 5935 5933 5932 5928 5929 5927 5924 5919
5934 5936 5938 5938 5938 5940 5941 5942 5942 5941 5941 5941 5942 5943 5945 5947 5949 5947 5948 5950 5952 5953 5952 5950 5947 5944 5947 5943 5949 5951 5950 5949 5948 5946 5943 5941 5939 5937 5930 5930 5928 5927 5925 5924 5922
5930 5931 5934 5935 5935 5937 5939 5941 5942 5941 5941 5942 5943 5945 5946 5948 5949 5949 5949 5951 5953 5954 5955 5952 5949 5950 5946 5950 5952 5950 5949 5949 5944 5943 5941 5939 5934 5927 5931 5930 5926 5926 5925 5924 5921
5926 5926 5928 5931 5932 5933 5936 5938 5941 5941 5941 5942 5943 5945 5947 5950 5950 5951 5950 5953 5955 5956 5956 5955 5956 5955 5954 5953 5951 5950 5949 5946 5939 5938 5933 5940 5943 5936 5933 5928 5926 5927 5924 5923 5919
5923 5922 5923 5925 5928 5930 5933 5935 5938 5940 5941 5942 5943 5945 5946 5949 5951 5952 5953 5954 5955 5954 5956 5957 5956 5956 5957 5954 5950 5950 5947 5944 5940 5935 5937 5936 5937 5933 5929 5925 5924 5925 5924 5920 5917
5922 5921 5920 5921 5923 5927 5930 5932 5936 5938 5940 5941 5943 5944 5946 5948 5951 5952 5954 5956 5958 5954 5955 5956 5956 5956 5955 5956 5952 5948 5946 5945 5940 5941 5934 5931 5931 5920 5925 5916 5922 5922 5921 5918 5914
5921 5921 5920 5920 5921 5924 5927 5930 5934 5936 5938 5940 5942 5946 5948 5949 5950 5952 5955 5956 5959 5959 5958 5957 5956 5955 5954 5958 5956 5954 5952 5951 5946 5942 5931 5933 5929 5930 5920 5900 5919 5915 5912 5914 5910
5920 5920 5920 5920 5920 5923 5926 5929 5933 5936 5937 5940 5942 5942 5943 5945 5947 5950 5952 5955 5957 5959 5960 5957 5957 5958 5961 5960 5961 5960 5956 5952 5941 5938 5935 5936 5922 5928 5925 5921 5920 5915 5897 5909 5913
5919 5920 5920 5921 5920 5922 5925 5927 5931 5934 5934 5938 5941 5943 5945 5945 5947 5949 5951 5955 5956 5957 5957 5955 5956 5961 5961 5960 5959 5957 5954 5952 5944 5943 5941 5935 5926 5931 5925 5919 5922 5913 5909 5909 5911
5919 5920 5921 5920 5921 5921 5923 5926 5929 5931 5934 5937 5939 5941 5943 5945 5945 5947 5950 5952 5955 5955 5953 5951 5955 5956 5960 5959 5958 5952 5951 5949 5944 5942 5936 5933 5928 5926 5923 5920 5919 5916 5915 5914 5916
5918 5920 5921 5921 5922 5922 5923 5925 5927 5929 5932 5936 5938 5940 5942 5943 5945 5945 5948 5949 5951 5954 5951 5949 5950 5951 5952 5956 5953 5953 5950 5947 5946 5940 5937 5929 5923 5922 5919 5917 5914 5913 5911 5915 5914
5918 5919 5920 5921 5922 5922 5924 5924 5926 5928 5929 5933 5936 5938 5940 5943 5943 5944 5946 5948 5949 5950 5952 5951 5949 5950 5951 5952 5952 5949 5947 5946 5944 5938 5932 5926 5923 5918 5916 5916 5912 5908 5910 5912 5910
5915 5917 5919 5921 5921 5922 5923 5924 5925 5928 5929 5932 5935 5936 5939 5941 5942 5944 5945 5947 5948 5949 5949 5951 5951 5951 5950 5948 5949 5948 5946 5945 5941 5935 5929 5927 5924 5923 5919 5917 5906 5904 5908 5908 5906
5913 5915 5917 5919 5921 5922 5923 5925 5927 5929 5931 5930 5931 5934 5936 5939 5941 5943 5944 5946 5947 5946 5947 5946 5947 5948 5948 5948 5947 5946 5943 5940 5939 5933 5934 5927 5924 5922 5920 5915 5914 5914 5911 5910 5906
5910 5913 5916 5917 5919 5921 5923 5924 5924 5925 5933 5931 5929 5931 5934 5936 5938 5939 5941 5942 5943 5943 5944 5943 5946 5944 5946 5944 5945 5944 5941 5938 5937 5933 5931 5931 5925 5920 5917 5915 5913 5911 5909 5905 5898
5906 5910 5913 5915 5917 5919 5921 5922 5923 5922 5926 5927 5929 5930 5932 5934 5936 5937 5938 5939 5940 5941 5941 5941 5940 5942 5942 5943 5941 5940 5938 5937 5936 5933 5931 5926 5921 5922 5916 5904 5895 5900 5898 5897 5896
5902 5905 5910 5912 5915 5917 5919 5920 5921 5922 5925 5927 5927 5931 5931 5932 5934 5933 5934 5936 5937 5939 5938 5937 5937 5940 5937 5938 5940 5937 5938 5936 5937 5932 5930 5923 5919 5922 5921 5919 5903 5904 5904 5902 5898
5896 5900 5905 5908 5912 5915 5916 5918 5918 5921 5922 5925 5926 5928 5931 5934 5932 5932 5933 5934 5935 5936 5936 5936 5936 5938 5936 5936 5936 5934 5934 5931 5933 5930 5928 5926 5923 5919 5916 5915 5912 5908 5905 5900 5895
5890 5892 5900 5905 5910 5912 5913 5913 5917 5918 5920 5924 5925 5926 5928 5931 5931 5933 5933 5932 5933 5933 5934 5934 5933 5934 5934 5936 5936 5930 5932 5931 5930 5928 5928 5925 5923 5919 5912 5908 5903 5902 5901 5896 5891
5882 5886 5895 5899 5904 5906 5905 5911 5913 5916 5917 5919 5922 5923 5926 5928 5930 5932 5931 5932 5933 5933 5933 5933 5933 5934 5935 5936 5932 5933 5933 5930 5928 5927 5926 5923 5918 5912 5907 5903 5902 5897 5896 5891 5887
5875 5881 5887 5890 5896 5902 5905 5910 5910 5912 5916 5919 5920 5921 5925 5927 5928 5930 5928 5929 5930 5930 5931 5931 5931 5931 5931 5930 5931 5933 5933 5928 5930 5929 5926 5920 5917 5912 5908 5907 5907 5902 5895 5890 5884
5866 5870 5875 5882 5885 5889 5895 5902 5906 5908 5913 5916 5918 5922 5921 5923 5923 5922 5923 5924 5925 5926 5927 5929 5928 5928 5929 5926 5929 5927 5927 5930 5927 5926 5922 5919 5918 5915 5914 5910 5906 5901 5894 5887 5879
5856 5861 5872 5879 5884 5891 5894 5899 5903 5907 5908 5913 5918 5918 5916 5914 5918 5914 5919 5918 5922 5923 5923 5924 5924 5923 5925 5925 5925 5925 5922 5923 5922 5912 5922 5920 5915 5913 5910 5906 5903 5899 5893 5885 5876
5855 5862 5867 5873 5879 5886 5890 5895 5899 5901 5902 5906 5909 5911 5910 5908 5914 5916 5917 5919 5917 5919 5920 5920 5921 5920 5921 5921 5922 5920 5921 5923 5921 5918 5917 5915 5912 5910 5907 5900 5896 5892 5886 5881 5873